BEIDOU-3 M24

Last updated on Tue Sep 22 2026 00:03:02 GMT+0000 (Coordinated Universal Time)

1 44542U 19061A 26264.35735303 -.00000026 00000+0 00000+0 0 9992 2 44542 54.3933 179.4859 0009437 14.2115 345.8343 1.86229510 47586
UTC large
Height (km)
Speed (km/s)
/
Latitude / Longitude
Inclination (degrees)
Orbital Period (minutes)
Azimuth
Elevation
Range (km)
Doppler Factor

Next 0 passes for location: London (51.5072 / 0.1276)

No passes found over London.
BEIDOU-3 M24